Location: Atherton
(17.2661°S, 145.4859°E)
Time: 05:49:19
(UTC+10:00)

Courier 1B Rocket - Visible Passes

Search period start: 18 June 2025 00:00
Search period end: 28 June 2025 00:00
Orbit: 920 x 1201 km, 28.2° (Epoch: 17 June)

Date Brightness Start Highest point End Pass type
(mag) Time Alt. Az. Time Alt. Az. Time Alt. Az.
18 Jun 6.7 18:28:39 10° W 18:35:52 40° NNW 18:42:55 10° NE visible
18 Jun 8.0 20:28:10 10° NW 20:29:26 10° NNW 20:30:41 10° NNW visible
19 Jun 7.7 19:23:06 10° WNW 19:28:00 18° NNW 19:32:50 10° N visible
20 Jun 7.5 18:20:12 10° W 18:26:35 27° NNW 18:32:54 10° NNE visible
21 Jun 7.5 05:57:49 10° N 06:01:13 15° NNE 06:04:40 10° ENE visible
21 Jun 8.1 19:17:13 10° NW 19:18:50 11° NNW 19:20:26 10° NNW visible
22 Jun 7.8 18:12:26 10° WNW 18:17:21 18° NNW 18:22:15 10° N visible
23 Jun 7.0 05:47:11 10° NNW 05:52:07 24° NNE 05:57:07 10° E visible
24 Jun 7.4 04:47:32 10° N 04:50:59 15° NNE 04:54:26 10° ENE visible
25 Jun 6.2 05:37:17 10° NW 05:43:01 38° NNE 05:48:49 10° E visible
26 Jun 6.7 04:37:09 11° NNW 04:41:54 25° NNE 04:46:54 10° E visible
27 Jun 7.2 03:40:56 16° NNE 03:40:56 16° NNE 03:44:25 10° ENE visible
27 Jun 5.4 05:27:46 10° NW 05:33:57 60° NNE 05:40:07 10° ESE visible
